Regional Weather Roundup
Issued by NWS

Home | Current Version | Previous Version | Graphics & Text | Print | Product List | Glossary On
Versions: 1 2 3 4 5 6 7 8 9 10 11 12 13 14 15 16 17 18 19 20 21 22 23 24 25 26 27 28 29 30 31 32 33 34 35 36 37 38 39 40 41 42 43 44 45 46 47 48 49 50
000
ASUS43 KOAX 312110
RWRNE

WEATHER ROUNDUP FOR NEBRASKA
NATIONAL WEATHER SERVICE OMAHA NE
400 PM CDT FRI JUL 31 2015

NOTES: SATELLITE DATA IS BEING USED TO AUGMENT CLOUD COVER ABOVE
       12000 FEET.
       "FAIR" INDICATES FEW OR NO CLOUDS BELOW 12,000 FEET WITH NO
       SIGNIFICANT WEATHER AND/OR OBSTRUCTIONS TO VISIBILITY.

  * THESE STATIONS DO NOT REPORT WEATHER SUCH AS RAIN...SNOW OR FOG.

NEZ001>004-019>022-054>056-312200-
NEBRASKA PANHANDLE

CITY           SKY/WX    TMP DP  RH WIND       PRES   REMARKS
SCOTTSBLUFF    MOSUNNY   93  48  21 S10       30.19F
ALLIANCE       MOSUNNY   86  47  25 N8        30.20S
CHADRON        SUNNY     93  53  25 VRB7      30.14F HX  90
KIMBALL        MOSUNNY   84  46  26 CALM      30.25F
SIDNEY         MOSUNNY   91  46  21 S3        30.23F
$$

NEZ057>060-069>072-079>082-312200-
SOUTHWEST NEBRASKA

CITY           SKY/WX    TMP DP  RH WIND       PRES   REMARKS
NORTH PLATTE   SUNNY     92  60  34 SE6       30.13F HX  91
IMPERIAL       MOSUNNY   89  52  28 VRB3      30.16F
LEXINGTON      SUNNY     93  61  34 CALM      30.13F HX  93
MCCOOK         SUNNY     95  57  27 S10       30.13F HX  94
OGALLALA       SUNNY     89  60  38 SE6       30.18F
$$

NEZ005>010-023>029-035>040-094-312200-
NORTH CENTRAL NEBRASKA

CITY           SKY/WX    TMP DP  RH WIND       PRES   REMARKS
VALENTINE      SUNNY     94  46  19 CALM      30.12F HX  90
AINSWORTH      LGT RAIN  84  68  58 CALM      30.12F
BROKEN BOW     MOSUNNY   93  64  38 SW9       30.11F HX  94
O`NEILL        SUNNY     90  61  38 NE3       30.10F HX  90
ORD            MOSUNNY   94  59  31 W7        30.06  HX  93
THEDFORD       MOSUNNY   95  53  23 N7        30.14F HX  93
$$

NEZ041-046>049-061>064-073>077-083>087-312200-
SOUTH CENTRAL NEBRASKA

CITY           SKY/WX    TMP DP  RH WIND       PRES   REMARKS
GRAND ISLAND   MOSUNNY   92  67  43 S15       30.09F HX  95
AURORA         SUNNY     89  70  52 SW10      30.09F HX  94
HASTINGS       SUNNY     91  66  43 SW7       30.10F HX  93
HEBRON         SUNNY     90  63  40 SW6       30.09F HX  91
HOLDREGE       MOSUNNY   90  61  38 SE7       30.13F HX  90
KEARNEY *      SUNNY     90  66  45 S13G18    30.11F HX  92
YORK           SUNNY     90  73  58 S9        30.09F HX  98
$$

NEZ011>018-030>034-042>045-312200-
NORTHEAST NEBRASKA

CITY           SKY/WX    TMP DP  RH WIND       PRES   REMARKS
NORFOLK        MOSUNNY   88  72  58 E9        30.07F HX  94
ALBION         CLOUDY    69  64  85 E15       30.09F
BLAIR          MOSUNNY   85  73  66 CALM      30.07F HX  92
COLUMBUS *     PTSUNNY   84  68  58 SW5       30.08R
FREMONT        MOSUNNY   87  71  59 CALM      30.07F HX  92
TEKAMAH        MOSUNNY   89  75  63 N5        30.06F HX  99
WAYNE          MOSUNNY   87  73  61 SE7       30.09F HX  94
$$

NEZ050>053-065>068-078-088>093-312200-
SOUTHEAST NEBRASKA

CITY           SKY/WX    TMP DP  RH WIND       PRES   REMARKS
LINCOLN        MOSUNNY   93  69  45 SW8G17    30.08F HX  98
OMAHA EPPLEY   MOSUNNY   89  73  59 NW8       30.04F HX  97
BEATRICE       SUNNY     89  70  53 CALM      30.09F HX  94
FALLS CITY     SUNNY     89  72  56 CALM      30.07F HX  96
NEBRASKA CITY  SUNNY     88  67  48 SW7       30.08F HX  91
PLATTSMOUTH    MOSUNNY   90  70  52 W6        30.07F HX  95
$$

NEZ044-045-051>053-067-312200-
OMAHA AREA

CITY           SKY/WX    TMP DP  RH WIND       PRES   REMARKS
OMAHA EPPLEY   MOSUNNY   89  73  59 NW8       30.04F HX  97
BLAIR          MOSUNNY   85  73  66 CALM      30.07F HX  92
FREMONT        MOSUNNY   87  71  59 CALM      30.07F HX  92
MILLARD        PTSUNNY   88  73  60 W3        30.06F HX  96
OFFUTT AFB     MOSUNNY   88  72  59 SW5       30.05F HX  95
PLATTSMOUTH    MOSUNNY   90  70  52 W6        30.07F HX  95
WAHOO          FAIR      85  73  68 CALM      30.07F HX  92
$$


USA.gov is the U.S. government's official web portal to all federal, state and local government web resources and services.